CAPE
1421 1312 1067 546 483 457 388 107 32 0 0 0 0 9 116 96 102 70 97 155 76 17
1132 803 542 408 299 203 102 0 0 0 0 0 0 71 124 126 127 85 101 128 132 41
522 407 330 270 165 42 3 0 0 0 0 0 13 58 90 86 75 44 78 97 123 101
186 173 154 94 17 0 0 0 0 0 0 0 17 22 35 37 39 12 90 63 132 154
71 54 10 0 0 0 0 0 0 0 1 12 11 14 36 36 68 65 108 94 148 141
10 7 0 0 0 0 0 0 0 0 9 42 25 38 37 78 68 83 101 99 68 119
34 35 1 0 0 0 0 0 0 27 34 65 92 84 86 72 73 63 104 125 90 129
90 41 3 0 0 0 0 1 26 53 51 29 30 56 50 24 33 58 60 123 107 114
92 12 7 3 0 0 5 14 51 46 24 0 32 67 54 43 45 54 51 88 70 50
36 0 21 10 1 10 13 25 45 32 9 0 1 62 67 61 29 35 64 44 53 30
2 1 21 22 10 7 25 34 41 20 0 0 19 107 83 47 26 42 23 37 42 14
0 0 1 2 9 10 18 30 26 7 0 0 36 134 112 58 19 35 33 35 13 12
1 0 0 0 0 6 0 7 14 6 0 2 30 108 63 23 16 33 10 28 14 5
23 0 0 0 0 0 7 0 3 0 0 0 16 53 35 21 2 1 0 0 0 1
CIN
-44 -30 -44 -97 -74 -50 -29 -76 -57 -0 -0 -0 -0 -7 -25 -23 -27 -13 -22 -27 -47 -57
-59 -93 -97 -84 -63 -53 -59 -45 -0 -0 -0 -0 -0 -43 -25 -18 -15 -23 -39 -34 -39 -61
-107 -89 -79 -69 -61 -98 -182 -0 -0 -0 -0 -0 -27 -20 -20 -16 -12 -41 -49 -49 -33 -36
-127 -110 -96 -117 -142 -0 -0 -0 -0 -0 -0 -0 -15 -28 -21 -16 -25 -55 -48 -57 -40 -35
-185 -164 -188 -2 -0 -0 -0 -0 -0 -0 -12 -17 -12 -38 -25 -21 -38 -44 -51 -46 -31 -31
-310 -268 -0 -0 -0 -0 -0 -0 -0 -0 -49 -30 -43 -26 -15 -35 -39 -37 -46 -40 -44 -49
-213 -192 -12 -0 -0 -0 -0 -0 -0 -54 -30 -41 -50 -45 -39 -44 -31 -42 -44 -50 -50 -55
-131 -155 -16 -0 -0 -0 -0 -4 -45 -31 -30 -19 -53 -47 -46 -52 -48 -45 -60 -49 -47 -38
-120 -185 -12 -14 -0 -0 -15 -30 -40 -25 -22 -0 -43 -43 -44 -49 -54 -42 -41 -39 -37 -63
-166 -0 -36 -28 -6 -26 -27 -32 -26 -17 -18 -0 -4 -40 -50 -39 -56 -26 -25 -28 -22 -11
-111 -32 -23 -27 -16 -33 -29 -40 -21 -18 -0 -0 -73 -39 -46 -26 -20 -37 -37 -16 -10 -2
-0 -0 -11 -22 -36 -33 -26 -25 -19 -17 -0 -0 -82 -32 -32 -31 -55 -24 -27 -9 -2 -1
-28 -0 -0 -0 -0 -33 -0 -32 -26 -20 -0 -76 -55 -17 -19 -39 -36 -22 -17 -4 -0 -0
-164 -0 -0 -0 -10 -17 -59 -0 -28 -0 -0 -0 -58 -12 -8 -14 -26 -0 -0 -1 -0 -0
Wind_Speed
31 29 32 30 27 24 24 26 nan nan nan nan nan nan 15 nan 18 nan nan 14 nan nan
28 30 26 22 21 23 23 nan nan nan nan nan nan nan 14 18 16 nan 10 11 7 nan
22 19 19 19 23 nan nan nan nan nan nan nan nan nan nan nan nan nan nan nan 5 4
18 17 20 nan nan nan nan nan nan nan nan nan nan nan nan nan nan nan nan nan 2 4
nan nan nan nan nan nan nan nan nan nan nan nan nan nan nan nan nan nan 2 nan 4 4
nan nan nan nan nan nan nan nan nan nan nan nan nan nan nan nan nan nan 1 nan nan 3
nan nan nan nan nan nan nan nan nan nan nan nan nan nan nan nan nan nan 4 2 nan 3
nan nan nan nan nan nan nan nan nan nan nan nan nan nan nan nan nan nan nan 4 3 7
nan nan nan nan nan nan nan nan nan nan nan nan nan nan nan nan nan nan nan nan nan nan
nan nan nan nan nan nan nan nan nan nan nan nan nan nan nan nan nan nan nan nan nan nan
nan nan nan nan nan nan nan nan nan nan nan nan nan 8 nan nan nan nan nan nan nan nan
nan nan nan nan nan nan nan nan nan nan nan nan nan 14 5 nan nan nan nan nan nan nan
nan nan nan nan nan nan nan nan nan nan nan nan nan 18 nan nan nan nan nan nan nan nan
nan nan nan nan nan nan nan nan nan nan nan nan nan nan nan nan nan nan nan nan nan nan
Wind_Direction
277 281 283 288 291 294 304 303 nan nan nan nan nan nan 311 nan 331 nan nan 359 nan nan
276 281 286 285 288 297 296 nan nan nan nan nan nan nan 315 334 342 nan 349 6 14 nan
281 284 287 292 298 nan nan nan nan nan nan nan nan nan nan nan nan nan nan nan 23 90
292 297 300 nan nan nan nan nan nan nan nan nan nan nan nan nan nan nan nan nan 126 73
nan nan nan nan nan nan nan nan nan nan nan nan nan nan nan nan nan nan 41 nan 88 158
nan nan nan nan nan nan nan nan nan nan nan nan nan nan nan nan nan nan 188 nan nan 186
nan nan nan nan nan nan nan nan nan nan nan nan nan nan nan nan nan nan 227 215 nan 242
nan nan nan nan nan nan nan nan nan nan nan nan nan nan nan nan nan nan nan 144 228 225
nan nan nan nan nan nan nan nan nan nan nan nan nan nan nan nan nan nan nan nan nan nan
nan nan nan nan nan nan nan nan nan nan nan nan nan nan nan nan nan nan nan nan nan nan
nan nan nan nan nan nan nan nan nan nan nan nan nan 146 nan nan nan nan nan nan nan nan
nan nan nan nan nan nan nan nan nan nan nan nan nan 146 133 nan nan nan nan nan nan nan
nan nan nan nan nan nan nan nan nan nan nan nan nan 144 nan nan nan nan nan nan nan nan
nan nan nan nan nan nan nan nan nan nan nan nan nan nan nan nan nan nan nan nan nan nan